| time (UTC) | temp C | wind direction | speed KPH | gust KPH | rain 1hr cm | rain 24hr cm | rain mn cm | humidity % | barometer mb |
| 20260901164518 | 27 | 0 | 1.6 | 8.0 | 0.00 | 0.00 | 0.00 | 75 | 1014.4 |
| 20260901163517 | 26 | 23 | 3.2 | 6.4 | 0.00 | 0.00 | 0.00 | 76 | 1014.4 |
| 20260901162517 | 26 | 23 | 3.2 | 6.4 | 0.00 | 0.00 | 0.00 | 77 | 1014.4 |
| 20260901161537 | 26 | 45 | 1.6 | 6.4 | 0.00 | 0.00 | 0.00 | 76 | 1014.5 |
| 20260901160517 | 26 | 45 | 1.6 | 4.8 | 0.00 | 0.00 | 0.00 | 77 | 1014.5 |
| 20260901155517 | 26 | 0.0 | 0.0 | 0.00 | 0.00 | 0.00 | 75 | 1014.4 | |
| 20260901154518 | 26 | 0.0 | 3.2 | 0.00 | 0.00 | 0.00 | 75 | 1014.5 | |
| 20260901153519 | 25 | 23 | 1.6 | 3.2 | 0.00 | 0.00 | 0.00 | 77 | 1014.5 |
| 20260901152538 | 25 | 23 | 1.6 | 6.4 | 0.00 | 0.00 | 0.00 | 76 | 1014.4 |
| 20260901151518 | 24 | 23 | 1.6 | 3.2 | 0.00 | 0.00 | 0.00 | 78 | 1014.4 |
| 20260901150538 | 23 | 0.0 | 1.6 | 0.00 | 0.00 | 0.00 | 80 | 1014.3 | |
| 20260901145558 | 23 | 23 | 1.6 | 4.8 | 0.00 | 0.00 | 0.00 | 80 | 1014.4 |
| 20260901144518 | 23 | 0.0 | 0.0 | 0.00 | 0.00 | 0.00 | 80 | 1014.5 | |
| 20260901143518 | 23 | 0.0 | 0.0 | 0.00 | 0.00 | 0.00 | 84 | 1014.4 | |
| 20260901142518 | 22 | 0.0 | 0.0 | 0.00 | 0.00 | 0.00 | 84 | 1014.3 | |
| 20260901141518 | 22 | 0.0 | 0.0 | 0.00 | 0.00 | 0.00 | 85 | 1014.5 | |
| 20260901140518 | 22 | 0.0 | 0.0 | 0.00 | 0.00 | 0.00 | 86 | 1014.6 | |
| 20260901135518 | 22 | 0.0 | 0.0 | 0.00 | 0.00 | 0.00 | 88 | 1014.6 | |
| 20260901134518 | 21 | 0.0 | 0.0 | 0.00 | 0.00 | 0.00 | 90 | 1014.6 | |
| 20260901133517 | 20 | 0.0 | 0.0 | 0.00 | 0.00 | 0.00 | 92 | 1014.6 | |
| 20260901132517 | 20 | 0.0 | 0.0 | 0.00 | 0.00 | 0.00 | 94 | 1014.8 | |
| 20260901131517 | 19 | 0.0 | 0.0 | 0.00 | 0.00 | 0.00 | 96 | 1014.7 | |
| 20260901130517 | 18 | 0.0 | 0.0 | 0.00 | 0.00 | 0.00 | 96 | 1014.5 | |
| 20260901125537 | 18 | 0.0 | 0.0 | 0.00 | 0.00 | 0.00 | 96 | 1014.4 | |
| 20260901124537 | 18 | 0.0 | 0.0 | 0.00 | 0.00 | 0.00 | 96 | 1014.4 | |
| 20260901123537 | 18 | 0.0 | 0.0 | 0.00 | 0.00 | 0.00 | 96 | 1014.2 | |
| 20260901122517 | 17 | 0.0 | 0.0 | 0.00 | 0.00 | 0.00 | 96 | 1014.2 | |
| 20260901121517 | 17 | 0.0 | 0.0 | 0.00 | 0.00 | 0.00 | 96 | 1014.2 | |
| 20260901120517 | 17 | 0.0 | 0.0 | 0.00 | 0.00 | 0.00 | 96 | 1014.1 | |
| 20260901115517 | 17 | 0.0 | 0.0 | 0.00 | 0.00 | 0.00 | 96 | 1014.0 | |
| 20260901114517 | 17 | 0.0 | 1.6 | 0.00 | 0.00 | 0.00 | 96 | 1014.2 | |
| 20260901113518 | 17 | 0.0 | 0.0 | 0.00 | 0.00 | 0.00 | 96 | 1014.1 | |
| 20260901112517 | 17 | 0.0 | 0.0 | 0.00 | 0.00 | 0.00 | 96 | 1014.0 | |
| 20260901111517 | 17 | 0.0 | 0.0 | 0.00 | 0.00 | 0.00 | 96 | 1013.9 | |
| 20260901110517 | 17 | 0.0 | 0.0 | 0.00 | 0.00 | 0.00 | 96 | 1014.0 | |
| 20260901105517 | 17 | 0.0 | 0.0 | 0.00 | 0.00 | 0.00 | 96 | 1013.9 | |
| 20260901104517 | 17 | 0.0 | 0.0 | 0.00 | 0.00 | 0.00 | 96 | 1013.8 | |
| 20260901103517 | 17 | 0.0 | 0.0 | 0.00 | 0.00 | 0.00 | 96 | 1013.8 | |
| 20260901102557 | 17 | 0.0 | 0.0 | 0.00 | 0.00 | 0.00 | 96 | 1013.8 | |
| 20260901101517 | 17 | 0.0 | 0.0 | 0.00 | 0.00 | 0.00 | 96 | 1013.7 | |
| 20260901100517 | 17 | 0.0 | 0.0 | 0.00 | 0.00 | 0.00 | 96 | 1013.6 | |
| 20260901095517 | 17 | 0.0 | 0.0 | 0.00 | 0.00 | 0.00 | 96 | 1013.5 | |
| 20260901094517 | 17 | 0.0 | 0.0 | 0.00 | 0.00 | 0.00 | 96 | 1013.5 | |
| 20260901093517 | 17 | 0.0 | 0.0 | 0.00 | 0.00 | 0.00 | 96 | 1013.5 | |
| 20260901092517 | 17 | 0.0 | 0.0 | 0.00 | 0.00 | 0.00 | 96 | 1013.6 | |
| 20260901091517 | 17 | 0.0 | 0.0 | 0.00 | 0.00 | 0.00 | 96 | 1013.5 | |
| 20260901090517 | 17 | 0.0 | 0.0 | 0.00 | 0.00 | 0.00 | 96 | 1013.6 | |
| 20260901085557 | 17 | 0.0 | 0.0 | 0.00 | 0.00 | 0.00 | 96 | 1013.4 | |
| 20260901084537 | 18 | 0.0 | 0.0 | 0.00 | 0.00 | 0.00 | 95 | 1013.4 | |
| 20260901083517 | 18 | 0.0 | 0.0 | 0.00 | 0.00 | 0.00 | 96 | 1013.3 | |
| 20260901082516 | 18 | 0.0 | 0.0 | 0.00 | 0.00 | 0.00 | 95 | 1013.4 | |
| 20260901081517 | 18 | 0.0 | 0.0 | 0.00 | 0.00 | 0.00 | 95 | 1013.7 | |
| 20260901080541 | 18 | 0.0 | 0.0 | 0.00 | 0.00 | 0.00 | 95 | 1013.6 | |
| 20260901075517 | 18 | 0.0 | 0.0 | 0.00 | 0.00 | 0.00 | 95 | 1013.5 | |
| 20260901074517 | 18 | 0.0 | 0.0 | 0.00 | 0.00 | 0.00 | 95 | 1013.6 | |
| 20260901073537 | 18 | 0.0 | 0.0 | 0.00 | 0.00 | 0.00 | 95 | 1013.5 | |
| 20260901072516 | 18 | 0.0 | 0.0 | 0.00 | 0.00 | 0.00 | 95 | 1013.5 | |
| 20260901071537 | 18 | 0.0 | 0.0 | 0.00 | 0.00 | 0.00 | 95 | 1013.5 | |
| 20260901070517 | 18 | 0.0 | 0.0 | 0.00 | 0.00 | 0.00 | 95 | 1013.6 | |
| 20260901065517 | 18 | 0.0 | 0.0 | 0.00 | 0.00 | 0.00 | 95 | 1013.6 | |
| 20260901064537 | 18 | 0.0 | 0.0 | 0.00 | 0.00 | 0.00 | 95 | 1013.7 | |
| 20260901063517 | 18 | 0.0 | 0.0 | 0.00 | 0.00 | 0.00 | 95 | 1013.7 | |
| 20260901062519 | 18 | 0.0 | 0.0 | 0.00 | 0.00 | 0.00 | 95 | 1013.9 | |
| 20260901061517 | 18 | 0.0 | 0.0 | 0.00 | 0.00 | 0.00 | 94 | 1013.8 | |
| 20260901060517 | 18 | 0.0 | 0.0 | 0.00 | 0.00 | 0.00 | 94 | 1013.6 | |
| 20260901055516 | 18 | 0.0 | 0.0 | 0.00 | 0.00 | 0.00 | 94 | 1013.8 | |
| 20260901054517 | 19 | 0.0 | 0.0 | 0.00 | 0.00 | 0.00 | 94 | 1013.8 | |
| 20260901053516 | 19 | 0.0 | 0.0 | 0.00 | 0.00 | 0.00 | 94 | 1013.8 | |
| 20260901052516 | 19 | 0.0 | 0.0 | 0.00 | 0.00 | 0.00 | 94 | 1013.8 | |
| 20260901051517 | 19 | 0.0 | 0.0 | 0.00 | 0.00 | 0.00 | 94 | 1013.7 | |
| 20260901050517 | 19 | 0.0 | 0.0 | 0.00 | 0.00 | 0.00 | 94 | 1013.5 | |
| 20260901045517 | 19 | 0.0 | 0.0 | 0.00 | 0.00 | 0.00 | 94 | 1013.5 | |
| 20260901044516 | 19 | 0.0 | 0.0 | 0.00 | 0.00 | 0.00 | 94 | 1013.4 | |
| 20260901043516 | 20 | 0.0 | 0.0 | 0.00 | 0.00 | 0.00 | 94 | 1013.3 | |
| 20260901042517 | 20 | 0.0 | 0.0 | 0.00 | 0.00 | 0.00 | 93 | 1013.2 | |
| 20260901041517 | 20 | 0.0 | 0.0 | 0.00 | 0.00 | 0.00 | 93 | 1013.2 | |
| 20260901040536 | 20 | 0.0 | 0.0 | 0.00 | 0.00 | 0.00 | 93 | 1013.0 | |
| 20260901035517 | 20 | 0.0 | 0.0 | 0.00 | 0.00 | 0.00 | 92 | 1013.0 | |
| 20260901034517 | 20 | 0.0 | 0.0 | 0.00 | 0.00 | 0.00 | 92 | 1013.1 | |
| 20260901033517 | 20 | 0.0 | 0.0 | 0.00 | 0.00 | 0.00 | 91 | 1013.0 | |
| 20260901032517 | 21 | 0.0 | 0.0 | 0.00 | 0.00 | 0.00 | 90 | 1013.0 | |
| 20260901031517 | 21 | 0.0 | 0.0 | 0.00 | 0.00 | 0.00 | 90 | 1012.9 | |
| 20260901030517 | 21 | 0.0 | 0.0 | 0.00 | 0.00 | 0.00 | 89 | 1012.8 | |
| 20260901025516 | 21 | 0.0 | 0.0 | 0.00 | 0.00 | 0.00 | 88 | 1012.7 | |
| 20260901024516 | 21 | 0.0 | 0.0 | 0.00 | 0.00 | 0.00 | 87 | 1012.6 | |
| 20260901023516 | 22 | 0.0 | 0.0 | 0.00 | 0.00 | 0.00 | 86 | 1012.6 | |
| 20260901022516 | 22 | 0.0 | 0.0 | 0.00 | 0.00 | 0.00 | 84 | 1012.7 | |
| 20260901021516 | 22 | 0.0 | 0.0 | 0.00 | 0.00 | 0.00 | 82 | 1012.5 | |
| 20260901020516 | 22 | 0.0 | 0.0 | 0.00 | 0.00 | 0.00 | 83 | 1012.4 | |
| 20260901015537 | 22 | 0.0 | 0.0 | 0.00 | 0.00 | 0.00 | 84 | 1012.4 | |
| 20260901014516 | 23 | 0.0 | 0.0 | 0.00 | 0.00 | 0.00 | 82 | 1012.6 | |
| 20260901013516 | 23 | 0.0 | 0.0 | 0.00 | 0.00 | 0.00 | 78 | 1012.5 | |
| 20260901012517 | 24 | 0.0 | 0.0 | 0.00 | 0.00 | 0.00 | 76 | 1012.4 | |
| 20260901011557 | 25 | 0.0 | 0.0 | 0.00 | 0.00 | 0.00 | 73 | 1012.3 | |
| 20260901010517 | 25 | 0.0 | 0.0 | 0.00 | 0.00 | 0.00 | 72 | 1012.4 | |
| 20260901005516 | 26 | 0.0 | 3.2 | 0.00 | 0.00 | 0.00 | 71 | 1012.2 | |
| 20260901004517 | 26 | 0.0 | 0.0 | 0.00 | 0.00 | 0.00 | 69 | 1012.3 | |
| 20260901003517 | 26 | 0.0 | 0.0 | 0.00 | 0.00 | 0.00 | 67 | 1012.3 | |
| 20260901002516 | 27 | 0.0 | 0.0 | 0.00 | 0.00 | 0.00 | 65 | 1012.4 | |
| 20260901001517 | 27 | 23 | 1.6 | 6.4 | 0.00 | 0.00 | 0.00 | 64 | 1012.2 |
| 20260901000516 | 27 | 23 | 1.6 | 4.8 | 0.00 | 0.00 | 0.00 | 63 | 1012.4 |
| 20260831235516 | 27 | 0.0 | 0.0 | 0.00 | 0.00 | 0.00 | 63 | 1012.3 | |
| 20260831234516 | 28 | 23 | 3.2 | 8.0 | 0.00 | 0.00 | 0.00 | 59 | 1012.2 |
| 20260831233516 | 28 | 135 | 3.2 | 4.8 | 0.00 | 0.00 | 0.00 | 57 | 1012.3 |
| 20260831232516 | 29 | 23 | 3.2 | 9.7 | 0.00 | 0.00 | 0.00 | 55 | 1012.3 |
| 20260831231536 | 29 | 0 | 1.6 | 3.2 | 0.00 | 0.00 | 0.00 | 56 | 1012.3 |
| 20260831230516 | 29 | 0 | 4.8 | 11.3 | 0.00 | 0.00 | 0.00 | 52 | 1012.3 |
| 20260831225516 | 30 | 0 | 4.8 | 12.9 | 0.00 | 0.00 | 0.00 | 48 | 1012.2 |
| 20260831224517 | 30 | 158 | 3.2 | 11.3 | 0.00 | 0.00 | 0.00 | 51 | 1012.3 |
| 20260831223517 | 30 | 135 | 4.8 | 9.7 | 0.00 | 0.00 | 0.00 | 50 | 1012.3 |
| 20260831222517 | 30 | 135 | 3.2 | 6.4 | 0.00 | 0.00 | 0.00 | 47 | 1012.1 |
| 20260831221516 | 30 | 158 | 3.2 | 8.0 | 0.00 | 0.00 | 0.00 | 46 | 1012.1 |
| 20260831220516 | 30 | 0 | 4.8 | 11.3 | 0.00 | 0.00 | 0.00 | 48 | 1012.2 |
| 20260831215516 | 30 | 0 | 8.0 | 14.5 | 0.00 | 0.00 | 0.00 | 48 | 1012.1 |
| 20260831214516 | 31 | 23 | 6.4 | 12.9 | 0.00 | 0.00 | 0.00 | 49 | 1012.2 |
| 20260831213516 | 31 | 0 | 3.2 | 6.4 | 0.00 | 0.00 | 0.00 | 48 | 1012.1 |
| 20260831212516 | 31 | 135 | 1.6 | 6.4 | 0.00 | 0.00 | 0.00 | 49 | 1011.9 |
| 20260831211516 | 31 | 0 | 3.2 | 8.0 | 0.00 | 0.00 | 0.00 | 50 | 1012.0 |
| 20260831210516 | 31 | 0 | 4.8 | 11.3 | 0.00 | 0.00 | 0.00 | 49 | 1012.0 |
| 20260831205519 | 31 | 135 | 3.2 | 8.0 | 0.00 | 0.00 | 0.00 | 50 | 1011.9 |
| 20260831204517 | 31 | 135 | 4.8 | 12.9 | 0.00 | 0.00 | 0.00 | 48 | 1011.9 |
| 20260831203517 | 31 | 0 | 3.2 | 8.0 | 0.00 | 0.00 | 0.00 | 49 | 1011.8 |
| 20260831202516 | 31 | 135 | 4.8 | 11.3 | 0.00 | 0.00 | 0.00 | 50 | 1011.8 |
| 20260831201536 | 31 | 0 | 4.8 | 11.3 | 0.00 | 0.00 | 0.00 | 50 | 1011.9 |
| 20260831200516 | 31 | 113 | 3.2 | 8.0 | 0.00 | 0.00 | 0.00 | 52 | 1011.6 |
| 20260831195516 | 30 | 23 | 4.8 | 17.7 | 0.00 | 0.00 | 0.00 | 52 | 1011.5 |
| 20260831194516 | 30 | 0 | 4.8 | 14.5 | 0.00 | 0.00 | 0.00 | 52 | 1011.6 |
| 20260831193516 | 30 | 0 | 6.4 | 16.1 | 0.00 | 0.00 | 0.00 | 52 | 1011.6 |
| 20260831192536 | 30 | 0 | 6.4 | 16.1 | 0.00 | 0.00 | 0.00 | 51 | 1011.6 |
| 20260831191516 | 30 | 23 | 6.4 | 17.7 | 0.00 | 0.00 | 0.00 | 55 | 1011.6 |
| 20260831190516 | 30 | 135 | 3.2 | 8.0 | 0.00 | 0.00 | 0.00 | 56 | 1011.7 |
| 20260831185517 | 29 | 0 | 4.8 | 11.3 | 0.00 | 0.00 | 0.00 | 56 | 1011.6 |
| 20260831184517 | 29 | 0 | 6.4 | 14.5 | 0.00 | 0.00 | 0.00 | 57 | 1011.7 |
| 20260831183537 | 29 | 23 | 6.4 | 14.5 | 0.00 | 0.00 | 0.00 | 63 | 1011.7 |
| 20260831182516 | 29 | 135 | 4.8 | 16.1 | 0.00 | 0.00 | 0.00 | 67 | 1011.8 |
| 20260831181516 | 28 | 135 | 6.4 | 19.3 | 0.00 | 0.00 | 0.00 | 68 | 1011.7 |
| 20260831180516 | 28 | 135 | 4.8 | 11.3 | 0.00 | 0.00 | 0.00 | 68 | 1011.6 |
| 20260831175516 | 28 | 158 | 6.4 | 12.9 | 0.00 | 0.00 | 0.00 | 70 | 1011.6 |
| 20260831174516 | 28 | 135 | 4.8 | 9.7 | 0.00 | 0.00 | 0.00 | 72 | 1011.7 |
| 20260831173516 | 28 | 158 | 3.2 | 11.3 | 0.00 | 0.00 | 0.00 | 73 | 1011.9 |
| 20260831172516 | 27 | 23 | 4.8 | 12.9 | 0.00 | 0.00 | 0.00 | 73 | 1011.9 |
| 20260831171537 | 27 | 135 | 1.6 | 6.4 | 0.00 | 0.00 | 0.00 | 79 | 1011.9 |
| 20260831170516 | 26 | 158 | 3.2 | 11.3 | 0.00 | 0.00 | 0.00 | 80 | 1011.9 |
| 20260831165516 | 26 | 135 | 3.2 | 11.3 | 0.00 | 0.00 | 0.00 | 82 | 1012.0 |